Location: Newark
(22.3060°N, 114.2134°E)
Time: 23:14:49
(UTC+00:00)

Explorer 11/Cluster Stage 4 - Pass Details

Date: 28 July 2021
Orbit: 467 x 1256 km, 28.8° (Epoch: 26 September)

Event Time Altitude Azimuth Distance (km) Brightness Sun altitude
Rises 09:16:34 0° 283° (WNW) 3,461 11.4 23.4°
Reaches altitude 10° 09:19:35 10° 274° (W) 2,372 11.0 22.7°
Maximum altitude 09:24:33 34° 211° (SSW) 1,120 7.8 21.6°
Drops below altitude 10° 09:28:37 10° 146° (SE) 1,931 8.2 20.7°
Sets 09:30:52 0° 136° (SE) 2,732 8.9 20.2°
